DW2659 Weather Reports


time (UTC)temp
C
wind
direction
speed
KPH
gust
KPH
rain 1hr
cm
rain 24hr
cm
rain mn
cm
humidity
%
barometer
mb
20260903044403 23 349 0.0 0.0 0.00 0.00 0.00 86 1017.1
20260903043904 23 349 0.0 0.0 0.00 0.00 0.00 86 1017.1
20260903043403 24 349 0.0 0.0 0.00 0.00 0.00 86 1017.1
20260903042903 24 349 0.0 0.0 0.00 0.00 0.00 86 1017.2
20260903042405 24 349 0.0 0.0 0.00 0.00 0.00 85 1017.2
20260903041902 24 349 0.0 0.0 0.00 0.00 0.00 85 1017.1
20260903041403 24 349 0.0 0.0 0.00 0.00 0.00 85 1017.1
20260903040904 24 349 0.0 0.0 0.00 0.00 0.00 85 1017.1
20260903040403 24 349 0.0 0.0 0.00 0.00 0.00 85 1017.1
20260903035903 24 349 0.0 0.0 0.00 0.00 0.00 85 1017.2
20260903034903 24 349 0.0 0.0 0.00 0.00 0.00 84 1017.2
20260903034403 24 349 0.0 0.0 0.00 0.00 0.00 84 1017.3
20260903033904 25 349 0.0 0.0 0.00 0.00 0.00 84 1017.3
20260903033403 25 349 0.0 0.0 0.00 0.00 0.00 83 1017.3
20260903032903 25 349 0.0 0.0 0.00 0.00 0.00 83 1017.3
20260903031903 25 349 0.0 0.0 0.00 0.00 0.00 82 1017.3
20260903031403 25 349 0.0 0.0 0.00 0.00 0.00 82 1017.3
20260903030403 25 349 0.0 0.0 0.00 0.00 0.00 82 1017.4
20260903025903 25 349 0.0 0.0 0.00 0.00 0.00 81 1017.2
20260903025404 25 349 0.0 0.0 0.00 0.00 0.00 81 1017.2
20260903024903 25 349 0.0 0.0 0.00 0.00 0.00 81 1017.2
20260903024404 25 349 0.0 0.0 0.00 0.00 0.00 79 1017.2
20260903023904 25 348 0.0 0.0 0.00 0.00 0.00 79 1017.2
20260903023403 25 349 0.0 0.0 0.00 0.00 0.00 79 1017.2
20260903022903 25 349 0.0 0.0 0.00 0.00 0.00 79 1017.1
20260903022404 25 349 0.0 0.0 0.00 0.00 0.00 79 1017.1
20260903021904 25 349 0.0 0.0 0.00 0.00 0.00 79 1017.1
20260903021403 26 349 0.0 0.0 0.00 0.00 0.00 78 1017.0
20260903020903 26 349 0.0 0.0 0.00 0.00 0.00 78 1017.0
20260903020404 26 349 0.0 0.0 0.00 0.00 0.00 78 1017.0
20260903015904 26 349 0.0 0.0 0.00 0.00 0.00 77 1016.9
20260903015403 26 349 0.0 0.0 0.00 0.00 0.00 77 1016.9
20260903014904 26 349 0.0 0.0 0.00 0.00 0.00 77 1016.9
20260903014403 26 349 0.0 0.0 0.00 0.00 0.00 78 1016.8
20260903013903 26 349 0.0 0.0 0.00 0.00 0.00 76 1016.8
20260903013404 26 349 0.0 0.0 0.00 0.00 0.00 77 1016.8
20260903012403 26 349 0.0 1.6 0.00 0.00 0.00 76 1016.6
20260903011905 26 349 0.0 1.6 0.00 0.00 0.00 75 1016.6
20260903011403 27 349 0.0 1.6 0.00 0.00 0.00 75 1016.5
20260903010903 27 349 1.6 1.6 0.00 0.00 0.00 75 1016.5
20260903005903 27 349 0.0 0.0 0.00 0.00 0.00 73 1016.5
20260903005403 27 349 0.0 1.6 0.00 0.00 0.00 73 1016.5
20260903004905 27 348 0.0 1.6 0.00 0.00 0.00 74 1016.5
20260903004403 27 349 0.0 1.6 0.00 0.00 0.00 72 1016.3
20260903003405 28 349 0.0 0.0 0.00 0.00 0.00 71 1016.3
20260903002903 28 349 0.0 0.0 0.00 0.00 0.00 68 1016.3
20260903002403 28 349 0.0 1.6 0.00 0.00 0.00 68 1016.3
20260903001904 28 348 0.0 1.6 0.00 0.00 0.00 68 1016.3
20260903001403 28 349 0.0 1.6 0.00 0.00 0.00 67 1016.2
20260903000903 29 349 0.0 1.6 0.00 0.00 0.00 67 1016.2
20260903000404 29 349 0.0 0.0 0.00 0.00 0.00 66 1016.2
20260902235904 30 349 0.0 0.0 0.00 0.00 0.00 66 1016.2
20260902235403 30 349 0.0 0.0 0.00 0.00 0.00 66 1016.2
20260902234905 30 348 0.0 0.0 0.00 0.00 0.00 67 1016.2
20260902234403 30 348 0.0 0.0 0.00 0.00 0.00 66 1016.2
20260902233904 30 348 0.0 0.0 0.00 0.00 0.00 65 1016.2
20260902233404 31 348 0.0 0.0 0.00 0.00 0.00 64 1016.2
20260902232903 31 348 0.0 1.6 0.00 0.00 0.00 64 1016.2
20260902232403 31 348 0.0 0.0 0.00 0.00 0.00 63 1016.2
20260902230904 32 348 0.0 0.0 0.00 0.00 0.00 60 1016.2
20260902225404 32 348 0.0 1.6 0.00 0.00 0.00 58 1016.2
20260902224904 33 348 0.0 0.0 0.00 0.00 0.00 57 1016.2
20260902223903 33 348 0.0 0.0 0.00 0.00 0.00 56 1016.2
20260902223405 33 348 0.0 0.0 0.00 0.00 0.00 57 1016.2
20260902222403 35 348 0.0 0.0 0.00 0.00 0.00 53 1016.1
20260902221905 35 348 0.0 0.0 0.00 0.00 0.00 51 1016.2
20260902221403 35 348 0.0 0.0 0.00 0.00 0.00 52 1016.3
20260902220903 36 348 0.0 0.0 0.00 0.00 0.00 52 1016.4
20260902220404 36 349 0.0 0.0 0.00 0.00 0.00 52 1016.4
20260902215903 36 349 0.0 0.0 0.00 0.00 0.00 51 1016.4
20260902215403 36 348 0.0 0.0 0.00 0.00 0.00 52 1016.4
20260902214904 36 348 0.0 0.0 0.00 0.00 0.00 50 1016.4
20260902214404 36 348 0.0 0.0 0.00 0.00 0.00 50 1016.4
20260902213904 37 348 0.0 0.0 0.00 0.00 0.00 48 1016.4
20260902213404 37 349 0.0 0.0 0.00 0.00 0.00 49 1016.4
20260902212904 37 348 0.0 0.0 0.00 0.00 0.00 49 1016.5
20260902212403 37 349 0.0 0.0 0.00 0.00 0.00 49 1016.5
20260902211403 37 348 0.0 3.2 0.00 0.00 0.00 47 1016.6
20260902210903 37 349 1.6 3.2 0.00 0.00 0.00 48 1016.6
20260902210405 37 348 1.6 3.2 0.00 0.00 0.00 47 1016.6
20260902205903 37 222 1.6 3.2 0.00 0.00 0.00 43 1016.6
20260902204904 37 19 0.0 3.2 0.00 0.00 0.00 45 1016.6
20260902204403 37 18 0.0 3.2 0.00 0.00 0.00 47 1016.7
20260902203903 37 117 0.0 1.6 0.00 0.00 0.00 46 1016.7
20260902203405 37 117 0.0 1.6 0.00 0.00 0.00 46 1017.1
20260902202403 37 111 1.6 3.2 0.00 0.00 0.00 41 1017.1
20260902201905 37 22 0.0 1.6 0.00 0.00 0.00 43 1017.1
20260902201403 37 23 0.0 1.6 0.00 0.00 0.00 44 1017.1
20260902200904 37 6 0.0 4.8 0.00 0.00 0.00 45 1017.1
20260902200404 37 46 1.6 4.8 0.00 0.00 0.00 41 1017.3
20260902195903 37 5 1.6 4.8 0.00 0.00 0.00 47 1017.3
20260902195404 37 35 1.6 4.8 0.00 0.00 0.00 45 1017.3
20260902194904 37 240 3.2 4.8 0.00 0.00 0.00 42 1017.3
20260902194404 37 119 3.2 4.8 0.00 0.00 0.00 41 1017.7
20260902193903 37 277 1.6 3.2 0.00 0.00 0.00 43 1017.7
20260902193405 36 355 1.6 1.6 0.00 0.00 0.00 43 1017.7
20260902192904 36 355 0.0 3.2 0.00 0.00 0.00 43 1017.7
20260902192403 36 77 1.6 3.2 0.00 0.00 0.00 43 1017.7
20260902191904 36 34 1.6 4.8 0.00 0.00 0.00 46 1017.7
20260902191404 35 74 3.2 4.8 0.00 0.00 0.00 47 1018.1
20260902190904 35 82 0.0 3.2 0.00 0.00 0.00 45 1018.1
20260902190405 35 64 3.2 4.8 0.00 0.00 0.00 45 1018.1
20260902185904 35 114 3.2 8.0 0.00 0.00 0.00 45 1018.1
20260902185403 36 123 3.2 9.7 0.00 0.00 0.00 45 1018.1
20260902184905 36 124 1.6 4.8 0.00 0.00 0.00 46 1018.1
20260902183904 35 34 1.6 4.8 0.00 0.00 0.00 47 1018.2
20260902183404 35 34 3.2 4.8 0.00 0.00 0.00 49 1018.2
20260902182903 36 107 3.2 9.7 0.00 0.00 0.00 48 1018.2
20260902182404 36 86 1.6 4.8 0.00 0.00 0.00 50 1018.3
20260902181903 35 198 3.2 8.0 0.00 0.00 0.00 48 1018.3
20260902180904 35 5 3.2 4.8 0.00 0.00 0.00 48 1018.4
20260902180403 35 29 1.6 4.8 0.00 0.00 0.00 52 1018.4
20260902175403 35 121 4.8 11.3 0.00 0.00 0.00 49 1018.6
20260902174904 35 161 3.2 8.0 0.00 0.00 0.00 49 1018.6
20260902173903 35 17 1.6 4.8 0.00 0.00 0.00 49 1018.8
20260902172904 34 91 1.6 4.8 0.00 0.00 0.00 51 1019.1
20260902172404 35 83 1.6 3.2 0.00 0.00 0.00 50 1019.1
20260902171904 35 279 1.6 4.8 0.00 0.00 0.00 53 1019.1
20260902171404 35 356 1.6 4.8 0.00 0.00 0.00 53 1019.3
20260902170904 34 58 1.6 3.2 0.00 0.00 0.00 54 1019.3
20260902170403 34 196 3.2 4.8 0.00 0.00 0.00 51 1019.3
20260902165905 34 345 3.2 4.8 0.00 0.00 0.00 53 1019.4
20260902165404 33 322 3.2 8.0 0.00 0.00 0.00 54 1019.6
20260902164904 33 31 4.8 8.0 0.00 0.00 0.00 55 1019.6
20260902163903 33 96 3.2 4.8 0.00 0.00 0.00 57 1019.6
20260902163404 34 158 3.2 4.8 0.00 0.00 0.00 55 1019.7
20260902162904 34 262 1.6 4.8 0.00 0.00 0.00 59 1019.7
20260902162404 33 0 0.0 3.2 0.00 0.00 0.00 58 1019.7
20260902160903 32 232 3.2 9.7 0.00 0.00 0.00 61 1019.8
20260902160404 32 333 4.8 9.7 0.00 0.00 0.00 62 1019.8
20260902154903 33 5 1.6 4.8 0.00 0.00 0.00 60 1020.1
20260902153404 32 31 1.6 8.0 0.00 0.00 0.00 61 1020.1
20260902152905 32 246 4.8 8.0 0.00 0.00 0.00 60 1020.1
20260902152404 32 130 3.2 8.0 0.00 0.00 0.00 65 1020.1
20260902151903 31 132 3.2 8.0 0.00 0.00 0.00 64 1020.1
20260902150904 31 17 1.6 4.8 0.00 0.00 0.00 67 1020.1
20260902145905 31 355 1.6 3.2 0.00 0.00 0.00 68 1020.1
20260902145403 31 70 1.6 4.8 0.00 0.00 0.00 67 1020.1
20260902144904 31 67 1.6 4.8 0.00 0.00 0.00 69 1020.1
20260902143905 30 138 1.6 4.8 0.00 0.00 0.00 69 1020.1
20260902143404 30 111 1.6 4.8 0.00 0.00 0.00 70 1020.1
20260902142904 30 72 0.0 1.6 0.00 0.00 0.00 70 1020.2
20260902142405 29 138 3.2 4.8 0.00 0.00 0.00 71 1020.2
20260902141904 29 113 1.6 3.2 0.00 0.00 0.00 71 1020.2
20260902141403 28 113 1.6 4.8 0.00 0.00 0.00 72 1020.2
20260902140905 28 113 0.0 1.6 0.00 0.00 0.00 72 1020.2
20260902140404 28 113 0.0 3.2 0.00 0.00 0.00 72 1020.2
20260902135405 28 113 0.0 1.6 0.00 0.00 0.00 74 1020.1
20260902134403 28 141 3.2 4.8 0.00 0.00 0.00 75 1020.2
20260902133904 27 67 1.6 3.2 0.00 0.00 0.00 77 1020.2
20260902133405 27 67 0.0 3.2 0.00 0.00 0.00 78 1020.2
20260902132903 26 67 0.0 1.6 0.00 0.00 0.00 80 1020.2
20260902132404 26 67 1.6 3.2 0.00 0.00 0.00 82 1020.2
20260902131904 25 67 1.6 3.2 0.00 0.00 0.00 83 1020.1
20260902131404 25 69 0.0 1.6 0.00 0.00 0.00 86 1020.1
20260902130904 24 69 1.6 3.2 0.00 0.00 0.00 88 1020.1
20260902130405 23 69 1.6 3.2 0.00 0.00 0.00 91 1020.1
20260902125404 22 355 0.0 1.6 0.00 0.00 0.00 93 1020.0
20260902124906 22 355 0.0 0.0 0.00 0.00 0.00 93 1020.0
20260902124404 22 355 0.0 0.0 0.00 0.00 0.00 94 1020.0
20260902123904 22 355 0.0 0.0 0.00 0.00 0.00 94 1020.0
20260902123405 22 355 0.0 0.0 0.00 0.00 0.00 94 1020.0
20260902122904 21 355 0.0 0.0 0.00 0.00 0.00 94 1019.9
20260902122404 21 355 0.0 0.0 0.00 0.00 0.00 94 1019.4
20260902121904 21 355 0.0 0.0 0.00 0.00 0.00 94 1019.4
20260902121404 21 355 0.0 0.0 0.00 0.00 0.00 94 1019.4
20260902120402 21 355 0.0 0.0 0.00 0.00 0.00 93 1019.4
20260902115904 21 355 0.0 0.0 0.00 0.00 0.00 93 1019.4
20260902115402 21 355 0.0 0.0 0.00 0.00 0.00 93 1019.4
20260902114903 21 355 0.0 0.0 0.00 0.00 0.00 93 1019.4
20260902113903 21 355 0.0 0.0 0.00 0.00 0.00 93 1019.3
20260902113402 21 355 0.0 0.0 0.00 0.00 0.00 93 1019.3
20260902112403 21 355 0.0 0.0 0.00 0.00 0.00 93 1019.2
20260902111902 21 355 0.0 0.0 0.00 0.00 0.00 93 1019.1
20260902111402 21 355 0.0 0.0 0.00 0.00 0.00 93 1018.9
20260902110904 21 355 0.0 0.0 0.00 0.00 0.00 92 1018.9
20260902110403 21 355 0.0 0.0 0.00 0.00 0.00 92 1018.9
20260902105902 21 355 0.0 0.0 0.00 0.00 0.00 92 1018.9
20260902105404 21 355 0.0 0.0 0.00 0.00 0.00 92 1018.9
20260902104903 21 355 0.0 0.0 0.00 0.00 0.00 92 1018.9
20260902104402 21 355 0.0 0.0 0.00 0.00 0.00 92 1018.6
20260902103904 21 355 0.0 0.0 0.00 0.00 0.00 92 1018.6
20260902103403 21 355 0.0 0.0 0.00 0.00 0.00 92 1018.6
20260902102902 21 355 0.0 0.0 0.00 0.00 0.00 92 1018.6
20260902102404 21 355 0.0 1.6 0.00 0.00 0.00 92 1018.6
20260902100904 21 355 0.0 1.6 0.00 0.00 0.00 92 1018.6
20260902100402 21 355 0.0 1.6 0.00 0.00 0.00 92 1018.5
20260902095404 21 355 0.0 0.0 0.00 0.00 0.00 92 1018.2
20260902094902 21 355 0.0 0.0 0.00 0.00 0.00 92 1018.2
20260902094402 21 355 0.0 0.0 0.00 0.00 0.00 92 1018.2
20260902093904 21 355 0.0 0.0 0.00 0.00 0.00 92 1018.2
20260902093403 21 355 0.0 0.0 0.00 0.00 0.00 92 1018.2
20260902092903 21 355 0.0 0.0 0.00 0.00 0.00 92 1018.2
20260902091902 21 355 0.0 0.0 0.00 0.00 0.00 92 1018.2
20260902091402 21 355 0.0 0.0 0.00 0.00 0.00 91 1018.2
20260902090904 21 355 0.0 0.0 0.00 0.00 0.00 92 1018.2
20260902090403 21 355 0.0 0.0 0.00 0.00 0.00 91 1018.2
20260902085903 21 355 0.0 0.0 0.00 0.00 0.00 91 1018.1
20260902085403 21 355 0.0 0.0 0.00 0.00 0.00 91 1018.1
20260902084902 21 355 0.0 0.0 0.00 0.00 0.00 91 1018.1
20260902084402 21 355 0.0 0.0 0.00 0.00 0.00 91 1018.0
20260902083903 21 355 0.0 0.0 0.00 0.00 0.00 91 1018.0
20260902083403 21 355 0.0 0.0 0.00 0.00 0.00 91 1017.9
20260902082902 21 355 0.0 0.0 0.00 0.00 0.00 91 1017.8
20260902082404 21 355 0.0 0.0 0.00 0.00 0.00 91 1017.8
20260902081403 21 355 0.0 0.0 0.00 0.00 0.00 91 1017.7
20260902080403 21 355 0.0 0.0 0.00 0.00 0.00 91 1017.7
20260902075902 21 355 0.0 0.0 0.00 0.00 0.00 91 1017.8
20260902075404 22 355 0.0 1.6 0.00 0.00 0.00 91 1017.8
20260902074903 22 355 0.0 0.0 0.00 0.00 0.00 91 1017.8
20260902074402 22 355 0.0 1.6 0.00 0.00 0.00 91 1017.8
20260902073904 22 355 0.0 1.6 0.00 0.00 0.00 90 1017.8
20260902072903 22 355 0.0 0.0 0.00 0.00 0.00 90 1017.8
20260902072404 22 355 0.0 1.6 0.00 0.00 0.00 90 1017.8
20260902071902 22 355 1.6 1.6 0.00 0.00 0.00 90 1017.8
20260902071402 22 355 0.0 0.0 0.00 0.00 0.00 90 1017.9
20260902070904 22 355 0.0 0.0 0.00 0.00 0.00 90 1017.9
20260902065903 22 355 0.0 1.6 0.00 0.00 0.00 90 1017.8
20260902065404 22 355 0.0 1.6 0.00 0.00 0.00 90 1017.8
20260902064903 22 355 0.0 0.0 0.00 0.00 0.00 90 1017.8
20260902063904 22 355 0.0 0.0 0.00 0.00 0.00 89 1017.9
20260902063403 22 355 0.0 0.0 0.00 0.00 0.00 89 1017.9
20260902062902 22 355 0.0 0.0 0.00 0.00 0.00 89 1018.0
20260902062405 22 355 0.0 0.0 0.00 0.00 0.00 89 1018.0
20260902061902 22 355 0.0 0.0 0.00 0.00 0.00 90 1018.0
20260902061402 22 355 0.0 0.0 0.00 0.00 0.00 89 1018.0
20260902060904 22 355 0.0 1.6 0.00 0.00 0.00 89 1018.0
20260902060402 22 355 1.6 1.6 0.00 0.00 0.00 89 1018.0
20260902055903 22 355 0.0 0.0 0.00 0.00 0.00 89 1018.1
20260902055405 22 355 0.0 0.0 0.00 0.00 0.00 89 1018.1
20260902054902 22 355 0.0 0.0 0.00 0.00 0.00 89 1018.1
20260902054402 22 355 0.0 0.0 0.00 0.00 0.00 89 1018.1
20260902053904 22 355 0.0 0.0 0.00 0.00 0.00 88 1018.1
20260902053402 22 355 0.0 0.0 0.00 0.00 0.00 88 1018.1
20260902052903 22 355 0.0 0.0 0.00 0.00 0.00 88 1018.0
20260902051904 22 355 0.0 0.0 0.00 0.00 0.00 88 1018.0
20260902051402 22 355 0.0 0.0 0.00 0.00 0.00 88 1018.0
20260902050903 22 355 0.0 0.0 0.00 0.00 0.00 88 1018.0
20260902050403 22 355 0.0 0.0 0.00 0.00 0.00 88 1018.0
20260902045903 22 355 0.0 0.0 0.00 0.00 0.00 87 1018.0
20260902045403 22 355 0.0 0.0 0.00 0.00 0.00 87 1018.0
20260902044904 23 355 0.0 0.0 0.00 0.00 0.00 87 1018.0